EW8974 Weather Reports


Display with metric or nautical units.
time (UTC)temp
F
wind
direction
speed
MPH
gust
MPH
rain 1hr
in
rain 24hr
in
rain mn
in
humidity
%
barometer
mb
20260504110552 58 233 4.0 10.0 0.00 0.00 0.00 83 1007.3
20260504100546 59 209 1.0 5.0 0.00 0.00 0.00 80 1007.8
20260504081530 61 191 4.0 11.0 0.00 0.00 0.00 74 1008.1
20260504081130 61 248 2.0 10.0 0.00 0.00 0.00 74 1008.2
20260504080529 61 199 2.0 9.0 0.00 0.00 0.00 73 1008.4
20260504050509 63 204 1.0 7.0 0.00 0.00 0.00 66 1010.1
20260504050004 63 200 3.0 7.0 0.00 0.00 0.00 65 1010.1
20260504045504 63 237 2.0 6.0 0.00 0.00 0.00 66 1010.2
20260504045004 63 200 2.0 6.0 0.00 0.00 0.00 66 1010.2
20260504044504 64 218 1.0 6.0 0.00 0.00 0.00 66 1010.3
20260504044005 64 182 2.0 6.0 0.00 0.00 0.00 65 1010.3
20260504043504 64 140 1.0 6.0 0.00 0.00 0.00 65 1010.2
20260504043004 64 169 2.0 7.0 0.00 0.00 0.00 65 1010.3
20260504042504 64 201 2.0 7.0 0.00 0.00 0.00 65 1010.3
20260504042002 64 236 2.0 7.0 0.00 0.00 0.00 65 1010.3
20260504041503 64 244 1.0 7.0 0.00 0.00 0.00 65 1010.3
20260504041002 64 203 2.0 6.0 0.00 0.00 0.00 65 1010.4
20260504040502 64 248 1.0 6.0 0.00 0.00 0.00 64 1010.4
20260504040007 64 212 2.0 6.0 0.00 0.00 0.00 64 1010.4
20260504035502 64 242 2.0 6.0 0.00 0.00 0.00 64 1010.3
20260504035001 64 242 1.0 5.0 0.00 0.00 0.00 63 1010.4
20260504034502 64 186 1.0 5.0 0.00 0.00 0.00 63 1010.2
20260504034001 65 229 1.0 4.0 0.00 0.00 0.00 62 1010.3
20260504033501 65 234 1.0 6.0 0.00 0.00 0.00 62 1010.2
20260504033001 65 217 2.0 7.0 0.00 0.00 0.00 61 1010.3
20260504032503 65 229 1.0 7.0 0.00 0.00 0.00 61 1010.3
20260504032002 65 233 1.0 4.0 0.00 0.00 0.00 60 1010.4
20260504031629 65 160 0.0 3.0 0.00 0.00 0.00 60 1010.3
20260504031501 65 160 0.0 3.0 0.00 0.00 0.00 60 1010.3
20260504031103 66 238 1.0 4.0 0.00 0.00 0.00 59 1010.3
20260504030559 66 229 1.0 4.0 0.00 0.00 0.00 58 1010.2
20260504030059 66 205 1.0 5.0 0.00 0.00 0.00 58 1010.1
20260504025559 66 113 1.0 6.0 0.00 0.00 0.00 57 1010.1
20260504025102 66 251 2.0 7.0 0.00 0.00 0.00 57 1010.1
20260504024601 66 213 2.0 7.0 0.00 0.00 0.00 57 1010.2
20260504024058 66 136 1.0 4.0 0.00 0.00 0.00 56 1010.1
20260504023559 67 174 0.0 7.0 0.00 0.00 0.00 57 1010.2
20260504023059 67 258 2.0 7.0 0.00 0.00 0.00 56 1010.1
20260504022559 67 241 1.0 5.0 0.00 0.00 0.00 57 1010.1
20260504022101 67 210 1.0 4.0 0.00 0.00 0.00 56 1010.1
20260504021610 67 200 1.0 4.0 0.00 0.00 0.00 56 1010.1
20260504021059 67 209 2.0 5.0 0.00 0.00 0.00 56 1010.1
20260504020601 68 224 1.0 6.0 0.00 0.00 0.00 56 1010.2
20260504020106 68 172 1.0 6.0 0.00 0.00 0.00 56 1010.2
20260504015557 68 207 1.0 4.0 0.00 0.00 0.00 55 1010.1
20260504015057 68 191 1.0 4.0 0.00 0.00 0.00 55 1010.1
20260504014557 69 237 0.0 5.0 0.00 0.00 0.00 54 1009.9
20260504014056 69 190 1.0 7.0 0.00 0.00 0.00 54 1009.9
20260504013557 69 169 3.0 7.0 0.00 0.00 0.00 53 1010.0
20260504013105 69 214 1.0 6.0 0.00 0.00 0.00 52 1009.9
20260504012558 70 219 1.0 6.0 0.00 0.00 0.00 52 1009.9
20260504012056 70 249 0.0 6.0 0.00 0.00 0.00 51 1009.8
20260504011558 70 250 0.0 4.0 0.00 0.00 0.00 50 1009.9
20260504011055 71 240 1.0 6.0 0.00 0.00 0.00 49 1010.0
20260504010555 71 187 1.0 5.0 0.00 0.00 0.00 48 1009.9
20260504010105 72 240 1.0 6.0 0.00 0.00 0.00 47 1010.0
20260504005555 73 215 2.0 9.0 0.00 0.00 0.00 45 1010.0
20260504005055 73 193 3.0 9.0 0.00 0.00 0.00 44 1009.9
20260504004557 74 227 3.0 9.0 0.00 0.00 0.00 44 1009.8
20260504004055 75 168 3.0 9.0 0.00 0.00 0.00 42 1009.9
20260504003554 76 238 2.0 9.0 0.00 0.00 0.00 42 1009.9
20260504003055 77 219 4.0 7.0 0.00 0.00 0.00 40 1009.8
20260504002554 77 221 4.0 7.0 0.00 0.00 0.00 40 1010.0
20260504002054 77 219 2.0 7.0 0.00 0.00 0.00 40 1010.1
20260504001609 77 217 1.0 8.0 0.00 0.00 0.00 39 1010.1
20260504001055 78 184 2.0 8.0 0.00 0.00 0.00 39 1010.1
20260504000552 78 191 2.0 10.0 0.00 0.00 0.00 38 1010.1
20260504000055 79 216 3.0 12.0 0.00 0.00 0.00 37 1010.0
20260503235552 79 226 3.0 12.0 0.00 0.00 0.00 36 1010.1
20260503235052 79 238 4.0 11.0 0.00 0.00 0.00 36 1010.0
20260503234552 79 226 4.0 11.0 0.00 0.00 0.00 36 1010.2
20260503234051 79 224 3.0 10.0 0.00 0.00 0.00 37 1010.2
20260503233553 80 246 3.0 10.0 0.00 0.00 0.00 36 1010.3
20260503233050 80 181 3.0 10.0 0.00 0.00 0.00 35 1010.3
20260503232551 80 238 5.0 12.0 0.00 0.00 0.00 33 1010.3
20260503232050 80 205 5.0 12.0 0.00 0.00 0.00 32 1010.4
20260503231553 80 230 5.0 10.0 0.00 0.00 0.00 32 1010.3
20260503231049 80 242 5.0 10.0 0.00 0.00 0.00 32 1010.3
20260503230553 80 199 5.0 12.0 0.00 0.00 0.00 32 1010.4
20260503230048 80 259 4.0 12.0 0.00 0.00 0.00 32 1010.5
20260503225548 80 259 5.0 11.0 0.00 0.00 0.00 31 1010.5
20260503225049 80 146 5.0 12.0 0.00 0.00 0.00 30 1010.4
20260503224550 80 242 4.0 12.0 0.00 0.00 0.00 34 1010.5
20260503224047 80 189 2.0 11.0 0.00 0.00 0.00 35 1010.3
20260503223547 79 205 4.0 11.0 0.00 0.00 0.00 35 1010.6
20260503223047 80 193 4.0 8.0 0.00 0.00 0.00 34 1010.6
20260503222545 80 226 4.0 10.0 0.00 0.00 0.00 33 1010.5
20260503222045 80 191 4.0 12.0 0.00 0.00 0.00 33 1010.5
20260503221545 80 184 6.0 12.0 0.00 0.00 0.00 34 1010.7
20260503221047 81 219 3.0 11.0 0.00 0.00 0.00 34 1010.6
20260503220543 81 239 4.0 11.0 0.00 0.00 0.00 34 1010.7
20260503220043 81 195 4.0 10.0 0.00 0.00 0.00 35 1010.7
20260503215544 81 240 3.0 11.0 0.00 0.00 0.00 33 1010.8
20260503215041 81 169 4.0 13.0 0.00 0.00 0.00 34 1010.9
20260503214551 80 214 6.0 13.0 0.00 0.00 0.00 34 1011.0
20260503214044 80 235 4.0 10.0 0.00 0.00 0.00 35 1010.9
20260503213540 81 188 5.0 10.0 0.00 0.00 0.00 34 1011.0
20260503213102 81 224 5.0 9.0 0.00 0.00 0.00 35 1011.2
20260503212540 81 155 4.0 10.0 0.00 0.00 0.00 33 1011.2
20260503212039 82 281 3.0 10.0 0.00 0.00 0.00 33 1011.3
20260503211557 82 181 2.0 8.0 0.00 0.00 0.00 36 1011.2
20260503211042 81 246 3.0 10.0 0.00 0.00 0.00 33 1011.4
20260503210538 81 163 5.0 11.0 0.00 0.00 0.00 34 1011.5
20260503210037 82 236 5.0 11.0 0.00 0.00 0.00 35 1011.4
20260503205538 81 167 3.0 9.0 0.00 0.00 0.00 34 1011.7
20260503205039 81 263 2.0 7.0 0.00 0.00 0.00 34 1011.8
20260503204551 81 115 2.0 8.0 0.00 0.00 0.00 34 1012.0
20260503204035 82 241 2.0 9.0 0.00 0.00 0.00 32 1012.1
20260503203533 82 222 3.0 9.0 0.00 0.00 0.00 36 1012.3
20260503203036 82 247 2.0 9.0 0.00 0.00 0.00 35 1012.2
20260503202532 82 281 3.0 9.0 0.00 0.00 0.00 35 1012.2
20260503202032 82 186 2.0 8.0 0.00 0.00 0.00 35 1012.3
20260503201531 82 194 3.0 9.0 0.00 0.00 0.00 32 1012.4
20260503201029 81 240 2.0 9.0 0.00 0.00 0.00 36 1012.5
20260503200529 81 117 2.0 9.0 0.00 0.00 0.00 34 1012.5
20260503200029 81 224 1.0 8.0 0.00 0.00 0.00 34 1012.6
20260503195528 81 238 4.0 12.0 0.00 0.00 0.00 38 1012.6
20260503195026 81 233 5.0 12.0 0.00 0.00 0.00 36 1012.8
20260503194528 81 225 3.0 12.0 0.00 0.00 0.00 36 1012.8
20260503194026 81 262 3.0 12.0 0.00 0.00 0.00 36 1012.9
20260503193525 80 210 2.0 9.0 0.00 0.00 0.00 39 1012.8
20260503193025 80 176 4.0 10.0 0.00 0.00 0.00 39 1013.2
20260503192523 80 207 3.0 11.0 0.00 0.00 0.00 41 1013.2
20260503192023 80 253 4.0 11.0 0.00 0.00 0.00 39 1013.4
20260503191522 80 231 3.0 9.0 0.00 0.00 0.00 39 1013.4
20260503191022 80 240 4.0 9.0 0.00 0.00 0.00 39 1013.6
20260503190520 80 335 1.0 7.0 0.00 0.00 0.00 40 1013.5
20260503190024 79 213 2.0 10.0 0.00 0.00 0.00 40 1013.6
20260503185521 80 235 4.0 10.0 0.00 0.00 0.00 40 1013.7
20260503185018 80 221 3.0 8.0 0.00 0.00 0.00 41 1013.7
20260503184518 80 316 2.0 6.0 0.00 0.00 0.00 40 1013.9
20260503184020 79 309 2.0 6.0 0.00 0.00 0.00 42 1014.0
20260503183517 79 228 3.0 8.0 0.00 0.00 0.00 39 1014.0
20260503183016 79 314 3.0 11.0 0.00 0.00 0.00 36 1014.1
20260503182516 79 276 3.0 12.0 0.00 0.00 0.00 37 1014.2
20260503182016 79 11 3.0 12.0 0.00 0.00 0.00 35 1014.3
20260503181515 79 108 5.0 11.0 0.00 0.00 0.00 36 1014.3
20260503181015 79 240 3.0 8.0 0.00 0.00 0.00 35 1014.4
20260503180514 79 272 2.0 10.0 0.00 0.00 0.00 42 1014.5
20260503180025 79 200 4.0 10.0 0.00 0.00 0.00 39 1014.5
20260503175512 79 297 2.0 8.0 0.00 0.00 0.00 42 1014.7
20260503175013 78 297 3.0 9.0 0.00 0.00 0.00 43 1014.8
20260503174519 78 237 3.0 9.0 0.00 0.00 0.00 43 1014.9
20260503174009 78 219 3.0 7.0 0.00 0.00 0.00 45 1015.0
20260503173509 77 334 3.0 8.0 0.00 0.00 0.00 45 1015.1
20260503173012 77 268 3.0 8.0 0.00 0.00 0.00 45 1015.1
20260503172508 78 271 3.0 10.0 0.00 0.00 0.00 46 1015.1
20260503172007 77 214 2.0 10.0 0.00 0.00 0.00 48 1015.3
20260503171515 77 273 2.0 9.0 0.00 0.00 0.00 48 1015.4
20260503171104 76 267 2.0 11.0 0.00 0.00 0.00 51 1015.4
20260503170507 76 300 5.0 11.0 0.00 0.00 0.00 46 1015.5
20260503150540 69 332 2.0 7.0 0.00 0.00 0.00 58 1015.7
20260503131016 62 300 2.0 7.0 0.00 0.00 0.00 64 1015.3
20260503130518 61 298 2.0 6.0 0.00 0.00 0.00 66 1015.4